This is the latest recevied weather packets stored in our database for station/object K9APR. If no packets are shown the sender has not sent any weather packets the latest 10 day(s).
| Time | Temp. | Humidity | Pressure | Rain* | Wind** | Luminosity | Snow |
|---|---|---|---|---|---|---|---|
| 1787442861 | 22.78° C | 73% | 1012.9 hPa | 0 mm | - | - | - |
| 1787442321 | 22.78° C | 72% | 1013 hPa | 0 mm | - | - | - |
| 1787441781 | 22.78° C | 71% | 1012.9 hPa | 0 mm | - | - | - |
| 1787441242 | 23.33° C | 71% | 1012.9 hPa | 0 mm | - | - | - |
| 1787440701 | 23.33° C | 70% | 1012.8 hPa | 0 mm | - | - | - |
| 1787440161 | 23.33° C | 69% | 1012.8 hPa | 0 mm | - | - | - |
| 1787439620 | 23.89° C | 67% | 1012.7 hPa | 0 mm | - | - | - |
| 1787439081 | 23.89° C | 65% | 1012.7 hPa | 0 mm | - | - | - |
| 1787438540 | 23.89° C | 66% | 1012.7 hPa | 0 mm | - | - | - |
| 1787438001 | 24.44° C | 67% | 1012.6 hPa | 0 mm | - | - | - |
| 1787437462 | 24.44° C | 64% | 1012.5 hPa | 0 mm | - | - | - |
| 1787436920 | 25° C | 65% | 1012.5 hPa | 0 mm | - | - | - |
| 1787436382 | 25° C | 67% | 1012.3 hPa | 0 mm | - | - | - |
| 1787435842 | 25° C | 71% | 1012.2 hPa | 0 mm | - | - | - |
| 1787435300 | 25° C | 72% | 1012.1 hPa | 0 mm | - | - | - |
| 1787434762 | 25° C | 73% | 1012 hPa | 0 mm | - | - | - |
| 1787434220 | 25° C | 73% | 1012.1 hPa | 0 mm | - | - | - |
| 1787433680 | 25° C | 74% | 1012.1 hPa | 0 mm | - | - | - |
| 1787433140 | 25° C | 73% | 1012 hPa | 0 mm | - | - | - |
| 1787432600 | 25° C | 74% | 1012 hPa | 0 mm | - | - | - |
| 1787432062 | 24.44° C | 74% | 1011.9 hPa | 0 mm | - | - | - |
| 1787431520 | 25° C | 72% | 1011.9 hPa | 0 mm | - | - | - |
| 1787430980 | 25.56° C | 73% | 1012 hPa | 0 mm | - | - | - |
| 1787430441 | 25.56° C | 73% | 1012 hPa | 0 mm | - | - | - |
| 1787429901 | 25.56° C | 76% | 1011.9 hPa | 0 mm | - | - | - |
* Rain latest hour (hover to see other rain measurements)
** Current wind speed in m/s (hover to see current wind gust speed)